Content
SEND FEEDBACK

Daily
Averages
Monthly
Summary
Channel Islands

SAINT PETER PORT, CHANNEL ISLANDS


Home > Europe > Channel Islands
Elevation: 335 feet     Latitude: 49 25N     Longitude: 002 36W

WEATHER
 
SELECT A DAY
Number of Records: 249,028;   Date Range: 7/1/96 - 7/26/14
 
SHARE

PRINT THIS DATA

[ ← Previous Day ]
WEATHER ALMANAC - FEBRUARY 13, 2013
[ Next Day → ]
[ °C ]   °F
Weather ElementAverageHighLow
Temperature40.9 °F45 °F (9:00 pm)39 °F (3:00 am)
Dewpoint38.4 °F45 °F (9:00 pm)35 °F (3:00 am)
Humidity90.5 %100 % (4:20 pm)78 % (9:00 am)
Barometer30.11 in30.18 in (12:00 pm)30.06 in (5:50 pm)
Wind Speed12.9 mph19.6 mph (4:50 pm)
Weather ElementAverage
Visibility4 mi
Wind DirectionSSE (153.5 °)

Weather ElementTotal
Precipitation---
Heating Degree Days23 (Base 65)
Averaged from 43 records on February 13, 2013
WEATHER CONDITIONS BREAKOUT
WIND DIRECTION BREAKOUT
WEATHER BY HOUR - FEBRUARY 13, 2013
[ °C ]   °F
Local TimeTemperatureDewpointHumidityBarometerVisibilityWind DirectionWind SpeedGust SpeedPrecipitationEventsConditions
3:00 AM39.0 °F35.0 °F79 %30.13 in7.0 miSE (130°)8.1 mphPartly Cloudy
3:50 AM39.2 °F35.6 °F87 %30.09 in6.2 miSE (130°)6.9 mphScattered Clouds
4:20 AM39.2 °F35.6 °F87 %30.09 in6.2 miSE (140°)6.9 mphMostly Cloudy
4:50 AM39.2 °F35.6 °F87 %30.12 in6.2 miSE (140°)6.9 mphMostly Cloudy
5:20 AM39.2 °F35.6 °F87 %30.09 in6.2 miSE (140°)8.1 mphScattered Clouds
5:50 AM39.2 °F35.6 °F87 %30.12 in6.2 miSSE (150°)8.1 mphPartly Cloudy
6:00 AM39.0 °F36.0 °F83 %30.14 in9.0 miSSE (150°)8.1 mphPartly Cloudy
6:20 AM39.2 °F35.6 °F87 %30.12 in6.2 miSSE (150°)6.9 mphPartly Cloudy
6:50 AM39.2 °F35.6 °F87 %30.12 in6.2 miSE (140°)9.2 mphPartly Cloudy
7:20 AM39.2 °F35.6 °F87 %30.12 in6.2 miSE (140°)9.2 mphScattered Clouds
7:50 AM39.2 °F35.6 °F87 %30.12 in6.2 miSSE (150°)9.2 mphPartly Cloudy
8:20 AM41.0 °F35.6 °F81 %30.12 in6.2 miSE (140°)10.4 mphPartly Cloudy
8:50 AM41.0 °F37.4 °F87 %30.15 in6.2 miSSE (150°)10.4 mphScattered Clouds
9:00 AM41.0 °F36.0 °F78 %30.17 in9.0 miSSE (150°)10.4 mphPartly Cloudy
9:20 AM41.0 °F37.4 °F87 %30.15 in6.2 miSSE (150°)11.5 mphScattered Clouds
9:50 AM41.0 °F35.6 °F81 %30.15 in6.2 miSSE (150°)12.7 mphPartly Cloudy
10:20 AM41.0 °F35.6 °F81 %30.15 in6.2 miSSE (150°)12.7 mphPartly Cloudy
10:50 AM41.0 °F35.6 °F81 %30.15 in6.2 miSSE (150°)13.8 mphRainLight Rain
11:20 AM41.0 °F35.6 °F81 %30.15 in5.6 miSSE (150°)12.7 mphRainLight Rain
11:50 AM41.0 °F35.6 °F81 %30.15 in6.2 miSSE (150°)13.8 mphRainLight Rain
12:00 PM40.0 °F36.0 °F81 %30.18 in6.0 miSSE (150°)13.8 mphRainLight Rain
12:20 PM39.2 °F35.6 °F87 %30.15 in6.2 miSSE (150°)13.8 mphRainLight Rain
12:50 PM39.2 °F37.4 °F93 %30.12 in5.0 miSSE (150°)16.1 mphRainRain
1:20 PM39.2 °F37.4 °F93 %30.12 in3.7 miSSE (160°)18.4 mphMostly Cloudy
1:50 PM39.2 °F37.4 °F93 %30.12 in3.7 miSSE (150°)16.1 mphRainLight Rain
2:20 PM39.2 °F37.4 °F93 %30.12 in3.7 miSSE (150°)13.8 mphRainLight Rain
2:50 PM41.0 °F39.2 °F93 %30.09 in3.1 miSSE (150°)16.1 mphRainLight Rain
3:00 PM40.0 °F39.0 °F93 %30.13 in3.0 miSSE (150°)16.1 mphRainLight Rain
3:20 PM41.0 °F39.2 °F93 %30.09 in1.7 miSSE (150°)16.1 mphRainLight Rain
3:50 PM41.0 °F39.2 °F93 %30.09 in0.9 miSSE (150°)16.1 mphRainRain
4:20 PM41.0 °F41.0 °F100 %30.09 in0.6 miSSE (160°)18.4 mphFog-RainRain
4:50 PM41.0 °F41.0 °F100 %30.09 in0.6 miSSE (160°)19.6 mphDrizzle
5:20 PM41.0 °F41.0 °F100 %30.09 in1.0 miSSE (160°)17.3 mphLight Drizzle
5:50 PM42.8 °F42.8 °F100 %30.06 in0.6 miSSE (160°)17.3 mphFog-RainDrizzle
6:00 PM42.0 °F42.0 °F99 %30.10 in1.0 miSSE (160°)17.3 mphRainHeavy Rain
6:20 PM42.8 °F42.8 °F100 %30.06 in1.4 miSouth (170°)16.1 mphLight Drizzle
6:50 PM42.8 °F42.8 °F100 %30.09 in0.7 miSouth (170°)16.1 mphRainLight Rain
7:20 PM42.8 °F42.8 °F100 %30.09 in0.5 miSouth (170°)15.0 mphFogLight Drizzle
7:50 PM44.6 °F44.6 °F100 %30.06 in0.6 miSouth (180°)12.7 mphFogLight Drizzle
8:20 PM44.6 °F44.6 °F100 %30.06 in0.1 miSSE (160°)12.7 mphFogLight Drizzle
8:50 PM44.6 °F44.6 °F100 %30.06 in0.1 miSouth (180°)12.7 mphFogLight Drizzle
9:00 PM45.0 °F45.0 °F99 %30.09 in0.0 miSouth (180°)12.7 mphRainLight Drizzle
9:20 PM44.6 °F44.6 °F100 %30.06 in0.1 miSouth (180°)12.7 mphFog-RainRain
Hourly data recorded from EGJB, located miles away from Saint Peter Port, Channel Islands







STORIES FROM OUR PARTNERS